CAPE
0 0 0 0 0 0 0 0 0 0 0 0 0 0 0 0 0 0 0 0 0 0 0 0 0 0 0 0 0 0 0 0 0 127 651 715 370 721 1151 1042 1143 1055 904 590
0 0 0 0 0 0 0 0 0 0 0 0 0 0 0 0 0 0 0 0 0 0 0 0 0 0 0 0 0 0 0 0 0 2 385 728 359 641 817 694 945 1013 1090 928
0 0 0 0 0 0 0 0 0 0 0 0 0 0 0 0 0 0 0 0 0 0 0 0 0 0 0 0 0 0 0 0 0 0 596 740 872 740 702 765 613 702 814 1060
0 0 0 0 0 0 0 0 0 0 0 0 0 0 0 0 0 0 0 0 0 0 0 0 0 0 0 0 0 0 0 0 0 0 114 372 440 416 238 228 246 111 660 758
0 0 0 0 0 0 0 0 0 0 0 0 0 0 0 0 0 0 0 0 0 0 0 0 0 0 0 0 0 0 0 0 0 2 11 544 630 655 505 323 171 132 392 852
0 0 0 0 0 0 0 0 0 0 0 0 0 0 0 0 0 0 0 0 0 0 0 0 0 0 0 0 0 0 0 0 0 0 33 74 643 727 604 550 310 205 432 661
0 0 0 0 0 0 0 0 0 0 0 0 0 0 0 0 0 0 0 0 0 0 0 0 0 0 0 0 0 0 0 0 0 0 0 30 150 272 629 470 497 375 314 392
0 0 0 0 0 0 0 0 0 0 0 0 0 0 0 0 0 7 0 0 0 0 0 0 0 0 0 0 0 0 0 0 0 0 0 0 175 358 381 568 532 463 459 304
0 0 0 0 0 0 0 0 0 0 0 0 0 0 0 0 0 15 0 0 0 0 0 0 0 0 0 0 0 0 0 0 0 0 0 0 117 446 579 723 729 648 487 341
0 0 0 0 0 0 0 0 0 0 0 0 0 0 0 0 0 0 0 0 0 0 0 0 0 0 0 0 0 0 0 0 0 0 0 0 38 489 682 991 919 717 362 445
0 0 0 0 0 0 0 0 0 0 0 0 0 0 0 0 0 0 0 0 0 0 0 0 0 0 0 0 0 0 0 0 0 0 0 0 32 694 873 1009 887 430 554 574
0 0 0 0 0 0 0 0 0 0 0 0 0 0 0 0 0 0 0 0 0 0 0 0 0 0 0 0 0 0 0 0 0 0 0 0 12 452 863 998 993 943 515 550
0 0 0 0 0 0 0 0 0 0 0 0 0 0 0 0 0 0 0 0 0 0 0 0 0 0 0 0 0 0 0 0 0 0 0 0 0 134 427 581 638 828 659 567
0 0 0 0 0 0 0 0 0 0 0 0 0 0 0 0 0 0 0 0 0 0 0 0 0 0 0 0 0 0 0 0 0 0 0 0 0 4 10 149 187 211 276 472
0 0 0 0 0 0 0 0 0 0 0 0 0 0 1 1 0 0 0 0 0 0 0 0 0 0 0 0 0 0 0 0 0 0 0 0 0 0 35 20 98 83 148 542
0 0 0 0 0 0 0 0 0 0 0 0 0 0 0 0 0 0 0 0 0 0 0 0 0 0 0 0 0 0 0 0 0 0 0 0 0 0 1 30 107 199 569 579
0 0 0 0 0 0 0 0 0 0 5 6 0 2 0 0 0 0 0 0 0 0 0 0 3 4 0 0 1 1 1 0 0 0 0 0 0 0 124 238 238 291 349 355
0 0 0 1 0 0 0 0 0 0 0 0 0 0 2 0 0 2 0 0 0 0 0 0 1 3 0 0 0 0 0 0 0 0 0 0 0 6 270 151 191 147 109 58
0 0 0 0 0 0 0 0 0 0 0 0 0 0 1 0 0 0 0 0 0 0 0 0 5 5 3 1 1 1 0 0 0 0 0 0 0 3 233 94 16 8 16 0
0 0 0 0 0 0 0 0 0 0 0 0 4 0 5 1 1 0 0 0 0 0 0 1 4 4 2 1 1 1 2 1 0 0 0 0 0 1 108 2 1 2 1 1
0 0 0 0 0 0 0 0 0 0 0 1 11 5 0 1 1 0 0 1 5 5 5 5 5 3 2 1 1 1 0 0 0 0 0 0 0 1 15 0 2 3 4 4
0 0 0 0 0 0 0 0 0 0 0 3 11 0 1 0 0 4 1 6 6 6 7 6 4 3 2 2 2 2 2 0 0 0 0 0 0 12 0 1 3 4 5 3
0 0 0 0 0 0 0 0 0 0 0 5 0 0 0 1 6 6 5 5 7 8 7 6 3 3 2 1 1 1 0 0 0 0 0 0 2 1 2 2 3 4 7 7
0 0 0 0 0 0 0 0 0 5 7 3 0 0 0 5 2 4 3 2 3 4 3 3 3 3 3 2 3 0 0 0 0 0 0 5 2 2 3 4 5 6 6 9
0 2 0 0 0 0 0 0 1 10 0 0 1 8 2 3 2 1 1 1 2 2 3 3 3 3 2 1 1 0 0 0 0 0 13 2 2 3 1 2 3 5 5 4
2 0 1 1 0 2 1 5 6 0 0 0 1 2 2 3 1 2 2 2 1 2 2 3 2 3 2 2 0 0 0 0 0 7 2 2 2 3 3 1 0 0 0 0
CIN
0 0 0 0 0 0 0 0 0 0 0 0 0 0 0 0 0 0 0 0 0 0 0 0 0 0 0 0 0 0 0 0 0 -198 -142 -107 -66 -92 -108 -129 -105 -103 -103 -115
0 0 0 0 0 0 0 0 0 0 0 0 0 0 0 0 0 0 0 0 0 0 0 0 0 0 0 0 0 0 0 0 0 -17 -184 -144 -136 -149 -122 -161 -136 -112 -83 -90
0 0 0 0 0 0 0 0 0 0 0 0 0 0 0 0 0 0 0 0 0 0 0 0 0 0 0 0 0 0 0 0 0 0 -186 -175 -129 -146 -149 -147 -147 -120 -121 -96
0 0 0 0 0 0 0 0 0 0 0 0 0 0 0 0 0 0 0 0 0 0 0 0 0 0 0 0 0 0 0 0 0 0 -316 -196 -128 -88 -111 -98 -92 -126 -150 -126
0 0 0 0 0 0 0 0 0 0 0 0 0 0 0 0 0 0 0 0 0 0 0 0 0 0 0 0 0 0 0 0 0 -449 -427 -182 -133 -131 -153 -121 -114 -131 -162 -134
0 0 0 0 0 0 0 0 0 0 0 0 0 0 0 0 0 0 0 0 0 0 0 0 0 0 0 0 0 0 0 0 0 0 -431 -349 -148 -141 -141 -156 -128 -141 -160 -144
0 0 0 0 0 0 0 0 0 0 0 0 0 0 0 0 0 0 0 0 0 0 0 0 0 0 0 0 0 0 0 0 0 0 0 -402 -302 -275 -162 -148 -144 -143 -129 -142
0 0 0 0 0 0 0 0 0 0 0 0 0 0 0 0 0 -109 0 0 0 0 0 0 0 0 0 0 0 0 0 0 0 0 0 0 -302 -275 -288 -213 -181 -169 -141 -149
0 0 0 0 0 0 0 0 0 0 0 0 0 0 0 0 0 -57 0 0 0 0 0 0 0 0 0 0 0 0 0 0 0 0 0 0 -310 -227 -228 -214 -175 -149 -126 -71
0 0 0 0 0 0 0 0 0 0 0 0 0 0 0 0 0 0 0 0 0 0 0 0 0 0 0 0 0 0 0 0 0 0 0 0 -311 -200 -191 -142 -129 -107 -101 -108
0 0 0 0 0 0 0 0 0 0 -5 -1 0 0 0 0 0 0 0 0 0 0 0 0 0 0 0 0 0 0 0 0 0 0 0 0 -308 -136 -127 -133 -114 -113 -96 -102
0 0 0 0 0 0 0 0 0 0 0 0 -2 0 0 0 0 0 0 0 0 0 0 0 0 0 0 0 0 0 0 0 0 0 0 0 -263 -157 -71 -94 -82 -118 -113 -123
0 0 0 0 0 0 0 0 0 0 0 0 0 0 0 0 0 0 0 0 0 0 0 0 0 0 0 0 0 0 0 0 0 0 0 0 0 -226 -150 -117 -75 -109 -108 -127
0 0 0 0 0 0 0 0 0 0 0 0 0 0 0 0 0 0 0 0 0 0 0 0 0 0 0 0 0 0 0 0 0 0 0 0 0 -16 -276 -172 -166 -152 -162 -99
0 0 0 0 0 0 0 0 0 0 0 0 0 0 -48 -8 0 0 0 0 0 0 0 0 0 0 0 0 0 0 0 0 0 0 0 0 0 0 -199 -178 -145 -169 -125 -125
0 0 0 0 0 0 0 0 0 0 0 0 -1 0 0 0 0 0 0 0 0 0 0 0 0 -1 0 0 0 0 0 0 0 0 0 0 0 0 -80 -206 -161 -173 -127 -142
0 0 0 0 0 0 0 0 0 0 -12 -15 0 -16 0 0 0 0 0 0 0 0 0 -1 0 0 0 0 0 0 0 0 0 0 0 0 0 0 -134 -165 -172 -152 -141 -168
0 0 0 -2 0 0 0 0 0 0 0 0 0 0 0 0 0 0 0 0 0 0 -1 0 0 0 0 0 0 0 0 0 0 0 0 0 0 -17 -89 -182 -189 -209 -226 -251
0 0 0 0 0 0 0 0 0 -1 0 0 0 -2 0 0 0 0 0 0 0 0 0 0 0 0 0 0 0 0 0 0 0 0 0 0 0 -15 -58 -148 -231 -295 -290 -15
0 0 0 0 0 0 0 0 0 0 0 0 0 0 0 0 0 0 0 -1 -1 0 0 0 0 0 0 0 0 0 0 0 0 0 0 0 0 -15 -79 -47 0 0 0 0
0 0 0 0 0 0 0 0 0 0 0 0 -4 -1 0 0 -1 -1 -1 -1 0 0 0 0 0 0 0 0 0 0 0 0 0 0 0 0 0 -17 -101 0 0 0 0 0
0 0 0 0 0 0 0 0 0 0 0 -4 -7 -8 0 0 -5 0 -1 0 0 0 0 0 0 0 0 0 0 0 0 0 0 0 0 0 0 -100 0 0 0 0 0 0
0 0 0 0 0 0 0 0 0 -3 0 -5 -11 0 0 0 0 0 0 0 0 0 0 0 0 0 0 0 0 0 0 0 0 0 0 0 -1 0 0 0 0 0 0 0
0 0 0 0 0 0 0 0 -3 -3 -2 -10 0 -1 0 0 0 0 0 0 0 0 0 0 0 0 0 0 0 0 0 0 0 0 0 0 0 0 0 0 0 0 0 0
-2 -6 0 0 0 0 -1 0 -12 -8 0 0 -1 0 0 0 0 0 0 0 0 0 0 0 0 0 0 0 0 0 0 0 0 0 0 -2 0 0 0 0 0 0 0 0
-15 0 0 0 0 0 0 -11 -9 0 0 0 -1 0 0 0 0 0 0 0 0 0 0 0 0 0 0 0 0 0 0 0 0 -4 0 0 0 0 0 0 0 0 0 0
Wind_Speed
25 27 29 27 26 24 25 27 29 27 27 36 36 39 38 40 41 40 38 37 38 37 37 37 37 36 36 35 37 39 38 36 30 29 30 30 30 30 31 30 29 28 28 29
26 26 25 24 26 25 26 30 32 29 32 37 43 51 42 31 30 32 30 32 33 33 35 34 34 34 34 34 34 35 35 36 32 30 30 32 30 32 31 31 31 29 28 27
23 24 22 25 27 29 30 31 30 34 37 33 39 41 35 30 25 25 27 28 27 28 31 32 33 33 33 33 33 32 31 31 32 32 30 30 30 31 31 31 31 32 30 29
21 21 23 26 26 26 34 23 29 37 42 49 32 48 37 28 30 26 25 25 25 27 30 31 33 33 32 33 32 31 30 29 29 28 30 31 35 37 33 33 32 34 32 32
23 24 25 26 25 24 26 29 32 38 36 36 33 33 32 27 32 23 24 22 22 25 27 30 31 32 32 32 32 33 31 31 30 29 27 32 35 36 37 33 34 34 34 33
21 20 21 22 23 21 25 31 34 29 29 35 30 31 33 33 23 22 22 21 20 25 28 30 31 33 33 34 35 35 34 33 33 31 29 29 34 37 39 39 36 36 35 35
27 21 18 21 26 24 27 32 37 35 37 35 27 34 30 24 20 21 22 24 22 24 28 31 33 33 35 36 38 38 37 37 36 34 33 32 32 35 38 40 40 37 35 36
27 28 20 22 28 27 26 24 30 38 38 39 33 30 24 19 22 19 23 22 21 26 29 33 35 36 37 40 43 43 43 42 40 38 37 36 33 30 31 36 38 37 36 33
27 24 22 25 21 20 25 27 22 30 30 34 29 24 25 21 22 22 30 26 25 26 32 37 38 39 41 44 47 46 46 45 43 40 40 38 35 30 28 26 29 31 29 32
25 32 23 23 22 21 21 18 28 25 34 36 30 28 22 27 25 37 36 30 25 27 36 38 41 44 46 48 49 47 46 46 43 41 39 37 36 31 24 22 20 22 27 30
26 24 24 29 25 27 24 25 22 22 23 31 37 24 22 26 21 36 31 37 39 35 39 43 47 48 50 51 50 49 47 45 43 39 39 37 35 32 25 20 21 19 22 27
22 25 32 28 24 23 20 21 18 25 27 25 31 25 18 19 24 25 41 46 39 38 44 46 48 51 53 52 49 48 45 43 40 40 38 36 32 29 25 15 17 14 22 26
26 26 38 33 28 24 24 22 20 22 27 29 32 25 28 30 32 33 43 41 40 44 48 51 53 53 53 49 49 45 42 41 39 37 36 34 32 32 25 17 20 17 19 24
21 22 25 31 31 31 31 28 24 24 29 33 28 29 43 35 38 36 34 40 44 48 51 55 53 52 50 48 47 43 40 37 36 35 35 33 31 30 24 24 15 17 26 24
23 28 27 28 28 29 30 30 27 27 28 30 26 29 35 42 39 35 36 44 50 54 56 55 52 51 48 45 44 40 38 36 34 33 34 33 30 28 23 21 17 18 7 8
29 32 32 34 30 29 31 29 27 25 24 25 27 30 33 35 37 38 44 48 55 56 56 53 50 50 47 47 43 39 36 36 33 32 34 32 30 29 24 18 18 13 13 15
29 28 31 37 32 36 37 27 26 28 29 31 35 39 38 42 47 47 49 53 55 56 53 51 52 50 46 44 41 39 35 32 30 32 33 32 30 28 25 20 13 10 12 10
24 27 29 36 36 38 27 28 28 30 29 30 34 35 37 49 51 49 50 54 55 56 55 55 49 47 46 41 39 37 32 30 29 31 32 32 30 28 23 16 12 11 9 12
21 28 34 33 35 36 30 24 28 34 42 33 27 38 50 46 52 44 41 49 56 56 55 50 45 46 43 39 37 35 34 31 30 31 32 32 30 28 21 14 11 8 12 8
26 30 28 32 33 33 26 25 32 30 32 21 41 49 52 55 51 51 58 56 55 50 46 47 42 45 39 37 36 36 36 33 32 29 31 32 30 28 23 16 11 8 6 9
37 30 27 28 28 25 21 31 34 34 33 47 49 50 48 51 55 49 53 54 56 54 53 47 46 40 38 38 37 37 38 35 23 25 31 32 30 28 23 16 13 6 4 7
30 30 29 27 27 27 18 36 28 23 31 22 25 38 46 46 42 37 40 45 45 37 43 44 40 38 38 37 37 37 38 34 23 22 31 32 31 25 17 12 11 6 5 5
26 22 28 21 16 12 17 14 17 23 20 26 26 27 36 37 33 28 42 42 33 24 35 37 35 37 38 38 37 36 32 33 28 24 33 32 26 20 15 14 11 10 13 8
24 22 20 22 16 13 18 21 25 28 24 28 30 32 25 26 30 31 30 31 25 34 29 20 34 17 38 33 35 19 27 21 19 24 33 26 22 18 15 14 14 11 13 14
21 20 17 12 12 14 19 26 21 27 39 31 25 23 26 32 31 25 19 25 27 25 18 11 9 12 28 34 19 17 13 12 21 31 26 22 20 17 16 14 13 14 17 19
18 16 11 13 16 16 18 23 29 31 40 26 23 25 35 28 19 22 19 23 22 18 11 8 7 7 7 24 15 8 10 20 32 27 23 24 20 17 16 14 11 7 10 14
Wind_Direction
3 358 355 356 355 349 343 338 333 333 333 324 321 316 316 314 310 310 311 311 311 313 316 315 314 314 310 308 302 294 287 283 277 273 270 270 270 270 268 268 267 265 265 264
354 350 354 355 352 347 341 334 331 332 330 325 319 309 319 322 319 318 318 317 316 316 320 324 323 322 320 314 311 308 296 286 280 274 269 269 269 269 268 270 267 265 265 265
351 348 355 346 343 338 336 333 333 330 328 330 326 322 327 332 331 328 325 324 324 324 324 326 326 325 324 321 320 315 314 305 289 279 274 270 271 272 269 269 267 264 264 265
351 357 351 345 340 342 334 343 336 330 326 321 335 318 328 333 329 327 329 330 328 327 324 324 323 324 323 321 320 320 323 322 313 293 276 269 266 263 265 265 265 264 264 264
343 346 346 342 343 345 339 338 334 329 328 331 335 328 333 338 330 329 330 335 339 335 336 328 323 321 322 321 321 320 320 321 322 316 291 276 271 266 268 263 264 263 266 263
353 355 353 351 350 349 345 337 334 338 338 331 338 336 332 332 336 333 334 336 337 331 333 326 322 316 314 310 314 315 317 314 313 315 309 290 276 267 264 264 263 264 266 264
351 356 5 359 348 347 345 341 332 331 331 331 344 334 329 332 336 332 328 323 328 331 327 322 327 307 308 306 309 309 306 305 307 307 306 301 288 273 267 263 263 264 267 262
351 346 358 356 341 339 344 347 336 328 329 327 330 330 344 350 343 345 334 327 326 322 320 316 321 303 307 305 310 305 302 297 298 300 302 299 297 285 274 268 265 266 271 266
348 345 346 344 351 355 344 338 344 331 330 329 336 338 334 334 338 335 325 324 322 322 317 309 312 308 306 307 310 306 299 294 294 296 298 298 295 292 278 273 267 267 269 270
347 335 345 352 351 347 340 346 336 338 331 328 332 329 328 330 333 317 316 327 334 327 316 310 307 305 307 307 309 305 299 292 286 284 289 291 297 294 282 270 263 262 269 272
343 339 341 341 342 334 335 332 336 334 330 327 329 334 343 331 329 317 324 317 317 321 313 307 306 307 307 304 307 300 299 294 289 293 296 299 301 294 280 267 264 263 270 273
347 340 330 329 332 335 333 330 328 325 326 320 321 291 327 335 337 330 314 308 319 314 307 312 309 308 308 307 305 302 304 301 294 288 290 294 302 286 278 269 263 271 275 278
342 340 333 336 344 348 338 334 325 324 323 308 311 311 333 330 329 326 316 314 312 311 308 309 307 306 304 307 307 308 306 301 292 288 289 287 287 273 282 284 275 281 279 277
337 332 325 322 324 328 323 321 317 311 312 311 301 289 316 323 325 327 329 316 312 310 311 309 309 306 304 309 307 305 305 303 295 286 280 278 282 284 283 277 279 280 278 280
340 326 322 317 318 320 317 318 317 309 302 305 301 310 319 320 323 327 326 312 307 307 309 310 311 307 310 308 307 302 303 305 296 286 278 273 282 283 280 283 283 288 262 286
335 328 331 326 327 326 325 324 317 317 318 313 313 317 326 327 326 326 318 303 301 304 310 311 313 310 311 307 297 294 300 302 297 283 272 271 276 277 276 286 286 295 283 282
331 335 335 331 338 333 330 338 339 332 329 325 320 320 325 322 317 320 303 299 299 306 315 313 311 312 314 304 293 290 300 307 302 282 269 266 269 273 272 277 290 299 285 277
340 340 338 332 336 332 344 342 337 334 333 329 324 327 327 317 309 296 312 299 308 310 306 307 316 318 308 294 289 293 301 302 301 282 267 263 263 265 268 286 292 287 285 271
350 345 336 334 332 328 340 352 346 336 295 330 336 326 314 325 299 286 326 320 307 306 309 316 319 314 298 283 287 289 292 294 290 278 264 257 257 258 265 288 281 286 271 271
346 343 336 338 336 338 346 349 344 344 331 352 323 312 317 317 297 290 305 309 312 320 322 320 321 298 292 281 283 281 277 283 279 280 262 252 252 251 256 275 272 275 275 259
340 344 344 344 341 343 348 343 342 332 320 304 312 311 296 297 312 289 294 297 305 312 311 315 298 282 278 281 286 281 274 277 292 287 261 249 245 243 248 258 252 255 265 249
343 344 347 347 345 352 13 319 347 339 285 311 290 290 292 291 290 288 329 327 326 327 322 306 284 276 281 282 284 279 274 276 285 286 254 241 236 235 239 240 233 229 232 172
343 347 342 346 343 307 295 316 324 335 315 292 294 307 296 292 292 307 330 330 331 325 277 279 274 275 281 288 284 285 283 277 272 266 237 231 227 224 228 224 213 210 213 190
341 347 342 345 351 330 333 340 340 342 327 334 333 301 310 302 329 331 333 336 325 283 274 256 282 255 295 307 298 308 292 283 254 237 218 220 208 211 216 213 214 201 203 196
341 347 347 290 299 315 346 346 326 340 340 336 311 322 331 337 337 335 314 287 281 276 265 259 337 334 318 301 317 305 292 258 225 206 205 196 195 201 201 203 206 208 206 203
0 355 346 279 290 299 321 336 345 345 300 305 310 334 344 344 331 292 293 282 275 270 271 282 301 322 346 312 305 307 259 217 195 192 186 187 189 194 194 190 188 198 172 191